Previsão horária em Abasár

Hoje, 17 Abril, Sábado

Tempo Temperatura Precipitação Vento Pressão Humidade
00:00 +3°C° 0 mm 1 m/s 742 mmHg 88%
01:00 +2°C° 0 mm 1 m/s 742 mmHg 90%
02:00 +2°C° 0 mm 1 m/s 742 mmHg 90%
03:00 +2°C° 0 mm 1 m/s 742 mmHg 91%
04:00 +1°C° 0 mm 1 m/s 742 mmHg 92%
05:00 +3°C° 0 mm 1 m/s 742 mmHg 88%
06:00 +4°C° 0 mm 1 m/s 743 mmHg 83%
07:00 +5°C° 0 mm 1 m/s 743 mmHg 79%
08:00 +5°C° 0 mm 2 m/s 743 mmHg 74%
09:00 +7°C° 0 mm 2 m/s 743 mmHg 68%
10:00 +8°C° 0 mm 2 m/s 743 mmHg 63%
11:00 +9°C° 0 mm 2 m/s 742 mmHg 60%
12:00 +10°C° 0 mm 1 m/s 742 mmHg 58%
13:00 +11°C° 0 mm 1 m/s 742 mmHg 55%
14:00 +11°C° 0 mm 1 m/s 742 mmHg 55%
15:00 +11°C° 0 mm 1 m/s 741 mmHg 55%
16:00 +11°C° 0 mm 1 m/s 741 mmHg 55%
17:00 +10°C° 0 mm 1 m/s 741 mmHg 60%
18:00 +8°C° 0 mm 2 m/s 741 mmHg 64%
19:00 +7°C° 0 mm 2 m/s 741 mmHg 69%
20:00 +6°C° 0 mm 2 m/s 741 mmHg 72%
21:00 +6°C° 0 mm 2 m/s 741 mmHg 75%
22:00 +5°C° 0 mm 2 m/s 741 mmHg 77%
23:00 +4°C° 0 mm 2 m/s 741 mmHg 79%

Amanhã, 18 Abril, Domingo

Tempo Temperatura Precipitação Vento Pressão Humidade
00:00 +5°C° 0 mm 1 m/s 741 mmHg 80%
01:00 +5°C° 0 mm 1 m/s 741 mmHg 81%
02:00 +4°C° 0 mm 2 m/s 741 mmHg 81%
03:00 +4°C° 0 mm 2 m/s 740 mmHg 81%
04:00 +4°C° 0 mm 2 m/s 740 mmHg 80%
05:00 +5°C° 0 mm 2 m/s 740 mmHg 79%
06:00 +5°C° 0 mm 2 m/s 740 mmHg 77%
07:00 +6°C° 0 mm 2 m/s 740 mmHg 75%
08:00 +7°C° 0 mm 2 m/s 740 mmHg 72%
09:00 +8°C° 0 mm 2 m/s 740 mmHg 69%
10:00 +9°C° 0 mm 2 m/s 740 mmHg 65%
11:00 +9°C° 0.1 mm 2 m/s 740 mmHg 66%
12:00 +10°C° 0.1 mm 2 m/s 740 mmHg 68%
13:00 +10°C° 0.1 mm 3 m/s 740 mmHg 69%
14:00 +9°C° 0.2 mm 3 m/s 740 mmHg 73%
15:00 +9°C° 0.2 mm 2 m/s 740 mmHg 78%
16:00 +8°C° 0.2 mm 2 m/s 740 mmHg 83%
17:00 +8°C° 0.4 mm 2 m/s 740 mmHg 86%
18:00 +7°C° 0.4 mm 2 m/s 740 mmHg 90%
19:00 +7°C° 0.4 mm 2 m/s 740 mmHg 93%
20:00 +8°C° 0.5 mm 1 m/s 740 mmHg 94%
21:00 +7°C° 0.5 mm 1 m/s 740 mmHg 95%
22:00 +7°C° 0.5 mm 1 m/s 740 mmHg 96%
23:00 +7°C° 0.7 mm 1 m/s 740 mmHg 97%

Depois de amanhã, 19 Abril, Segunda-feira

Tempo Temperatura Precipitação Vento Pressão Humidade
00:00 +7°C° 0.7 mm 1 m/s 740 mmHg 97%
01:00 +7°C° 0.7 mm 1 m/s 740 mmHg 97%
02:00 +7°C° 0.7 mm 1 m/s 739 mmHg 97%
03:00 +7°C° 0.7 mm 1 m/s 739 mmHg 97%
04:00 +6°C° 0.7 mm 1 m/s 739 mmHg 97%
05:00 +6°C° 0.5 mm 1 m/s 739 mmHg 97%
06:00 +6°C° 0.5 mm 1 m/s 739 mmHg 96%
07:00 +6°C° 0.5 mm 1 m/s 739 mmHg 95%
08:00 +7°C° 0.2 mm 1 m/s 739 mmHg 94%
09:00 +7°C° 0.2 mm 1 m/s 739 mmHg 93%
10:00 +6°C° 0.2 mm 2 m/s 739 mmHg 92%
11:00 +7°C° 0.1 mm 1 m/s 739 mmHg 90%
12:00 +8°C° 0.1 mm 1 m/s 739 mmHg 88%
13:00 +8°C° 0.1 mm 1 m/s 739 mmHg 86%
14:00 +8°C° 0.1 mm 1 m/s 739 mmHg 86%
15:00 +9°C° 0.1 mm 1 m/s 739 mmHg 85%
16:00 +9°C° 0.1 mm 1 m/s 738 mmHg 84%
17:00 +8°C° 0 mm 1 m/s 738 mmHg 86%
18:00 +8°C° 0 mm 1 m/s 738 mmHg 88%
19:00 +7°C° 0 mm 1 m/s 738 mmHg 90%
20:00 +7°C° 0 mm 1 m/s 738 mmHg 91%
21:00 +7°C° 0 mm 1 m/s 738 mmHg 91%
22:00 +7°C° 0 mm 1 m/s 738 mmHg 91%
23:00 +7°C° 0 mm 1 m/s 738 mmHg 91%

20 Abril, Terça-feira

Tempo Temperatura Precipitação Vento Pressão Humidade
00:00 +7°C° 0 mm 1 m/s 738 mmHg 91%
01:00 +7°C° 0 mm 1 m/s 737 mmHg 90%
02:00 +7°C° 0 mm 1 m/s 737 mmHg 90%
03:00 +7°C° 0 mm 1 m/s 737 mmHg 90%
04:00 +6°C° 0 mm 1 m/s 737 mmHg 90%
05:00 +7°C° 0 mm 1 m/s 737 mmHg 89%
06:00 +7°C° 0 mm 1 m/s 737 mmHg 88%
07:00 +8°C° 0 mm 1 m/s 737 mmHg 87%
08:00 +9°C° 0.1 mm 1 m/s 737 mmHg 83%
09:00 +9°C° 0.1 mm 1 m/s 738 mmHg 79%
10:00 +10°C° 0.1 mm 1 m/s 738 mmHg 75%
11:00 +11°C° 0.2 mm 1 m/s 738 mmHg 72%
12:00 +12°C° 0.2 mm 1 m/s 738 mmHg 69%
13:00 +12°C° 0.2 mm 1 m/s 738 mmHg 66%
14:00 +12°C° 0.3 mm 1 m/s 737 mmHg 67%
15:00 +12°C° 0.3 mm 1 m/s 737 mmHg 68%
16:00 +12°C° 0.3 mm 2 m/s 737 mmHg 68%
17:00 +10°C° 0.2 mm 2 m/s 737 mmHg 75%
18:00 +9°C° 0.2 mm 2 m/s 737 mmHg 81%
19:00 +8°C° 0.2 mm 2 m/s 738 mmHg 87%
20:00 +7°C° 0 mm 2 m/s 738 mmHg 88%
21:00 +7°C° 0 mm 2 m/s 738 mmHg 89%
22:00 +8°C° 0 mm 1 m/s 738 mmHg 89%
23:00 +7°C° 0 mm 1 m/s 738 mmHg 90%

21 Abril, Quarta-feira

Tempo Temperatura Precipitação Vento Pressão Humidade
00:00 +7°C° 0 mm 1 m/s 738 mmHg 90%
01:00 +6°C° 0 mm 1 m/s 738 mmHg 91%
02:00 +6°C° 0 mm 1 m/s 738 mmHg 91%
03:00 +6°C° 0 mm 1 m/s 738 mmHg 91%
04:00 +5°C° 0 mm 1 m/s 738 mmHg 92%
05:00 +7°C° 0 mm 1 m/s 738 mmHg 89%
06:00 +7°C° 0 mm 2 m/s 738 mmHg 86%
07:00 +8°C° 0 mm 2 m/s 739 mmHg 84%
08:00 +9°C° 0 mm 2 m/s 739 mmHg 78%
09:00 +11°C° 0 mm 3 m/s 739 mmHg 73%
10:00 +12°C° 0 mm 3 m/s 739 mmHg 67%
11:00 +13°C° 0.4 mm 3 m/s 739 mmHg 65%
12:00 +13°C° 0.4 mm 4 m/s 739 mmHg 63%
13:00 +14°C° 0.4 mm 4 m/s 738 mmHg 61%
14:00 +14°C° 0.2 mm 4 m/s 738 mmHg 61%
15:00 +14°C° 0.2 mm 4 m/s 738 mmHg 62%
16:00 +14°C° 0.2 mm 3 m/s 738 mmHg 62%
17:00 +12°C° 0.1 mm 3 m/s 738 mmHg 68%
18:00 +12°C° 0.1 mm 2 m/s 738 mmHg 74%
19:00 +10°C° 0.1 mm 1 m/s 738 mmHg 81%
20:00 +10°C° 0 mm 1 m/s 738 mmHg 82%
21:00 +9°C° 0 mm 1 m/s 739 mmHg 83%
22:00 +9°C° 0 mm 1 m/s 739 mmHg 84%
23:00 +9°C° 0.2 mm 1 m/s 739 mmHg 86%

22 Abril, Quinta-feira

Tempo Temperatura Precipitação Vento Pressão Humidade
00:00 +8°C° 0.2 mm 1 m/s 739 mmHg 88%
01:00 +8°C° 0.2 mm 1 m/s 739 mmHg 90%
02:00 +8°C° 0.1 mm 1 m/s 739 mmHg 92%
03:00 +7°C° 0.1 mm 1 m/s 739 mmHg 93%
04:00 +7°C° 0.1 mm 1 m/s 739 mmHg 94%
05:00 +8°C° 0.1 mm 1 m/s 740 mmHg 92%
06:00 +9°C° 0.1 mm 1 m/s 740 mmHg 90%
07:00 +10°C° 0.1 mm 1 m/s 740 mmHg 87%
08:00 +12°C° 0.1 mm 2 m/s 740 mmHg 82%
09:00 +13°C° 0.1 mm 2 m/s 740 mmHg 77%
10:00 +14°C° 0.1 mm 2 m/s 741 mmHg 72%
11:00 +14°C° 0.7 mm 2 m/s 740 mmHg 73%
12:00 +14°C° 0.7 mm 2 m/s 740 mmHg 75%
13:00 +13°C° 0.7 mm 3 m/s 740 mmHg 76%
14:00 +13°C° 0.8 mm 2 m/s 740 mmHg 78%
15:00 +13°C° 0.8 mm 2 m/s 740 mmHg 80%
16:00 +13°C° 0.8 mm 2 m/s 740 mmHg 82%
17:00 +12°C° 0.7 mm 2 m/s 741 mmHg 84%
18:00 +10°C° 0.7 mm 2 m/s 741 mmHg 86%
19:00 +10°C° 0.7 mm 1 m/s 741 mmHg 88%
20:00 +10°C° 0.3 mm 1 m/s 741 mmHg 89%
21:00 +8°C° 0.3 mm 2 m/s 741 mmHg 90%
22:00 +8°C° 0.3 mm 2 m/s 741 mmHg 91%
23:00 +8°C° 0.8 mm 2 m/s 741 mmHg 92%
Mostrar mais